Grafton, ND

1:56 AM CDT on September 26, 2016 (GMT -0500)
Grafton Municipal

Weather History for KGAF - September, 2013

Change the Weather History Date:

Sunday, September 22, 2013

  Actual Average Record
Temperature  
Mean Temperature 59 °F -  
Max Temperature 77 °F 65 °F 81 °F (1982)
Min Temperature 41 °F 41 °F 21 °F (1974)
Degree Days  
Heating Degree Days 6    
Growing Degree Days 9 (Base 50)    
Moisture  
Dew Point 48 °F    
Average Humidity 68    
Maximum Humidity 100    
Minimum Humidity 41    
Precipitation  
Precipitation 0.00 in - - ()
Sea Level Pressure  
Sea Level Pressure 29.69 in    
Wind  
Wind Speed 13 mph (SE)    
Max Wind Speed 29 mph    
Max Gust Speed 37 mph    
Visibility 10 miles    
Events      
Averages and records for this station are not official NWS values.
T = Trace of Precipitation, MM = Missing Value Source: NWS Daily Summary

Daily Weather History Graph

Daily Weather History Graph

Search for Another Location

Airport or City:

Trip Planner

Search our weather history database for the weather conditions in past years. The results will help you decide how hot, cold, wet, or windy it might be!

Date:

Astronomy

Sep. 22, 2013 Rise Set
Actual Time 7:16 AM CDT 7:26 PM CDT
Civil Twilight 6:45 AM CDT 7:57 PM CDT
Nautical Twilight 6:08 AM CDT 8:34 PM CDT
Astronomical Twilight 5:30 AM CDT 9:12 PM CDT
Moon 8:57 PM CDT (9/22) 10:56 AM CDT (9/22)
Length of Visible Light 13h 12m
Length of Day
12h 10m
Waning Gibbous, 88% of the Moon is Illuminated
Sep 22
Waning Gibbous
Sep 26
Last Quarter
Oct 4
New
Oct 11
First Quarter
Oct 18
Full

Hourly Weather History & Observations

Time (CDT) Temp. Windchill Dew Point Humidity Pressure Visibility Wind Dir Wind Speed Gust Speed Precip Events Conditions
12:15 AM 44.6 °F 39.7 °F 39.2 °F 81% 29.87 in 10.0 mi SE 9.2 mph - N/A   Clear
12:35 AM 44.6 °F 39.7 °F 37.4 °F 76% 29.86 in 10.0 mi ESE 9.2 mph - N/A   Clear
12:55 AM 44.6 °F 40.2 °F 37.4 °F 76% 29.86 in 10.0 mi ESE 8.1 mph - N/A   Clear
1:15 AM 44.6 °F 40.2 °F 37.4 °F 76% 29.86 in 10.0 mi ESE 8.1 mph - N/A   Clear
1:35 AM 42.8 °F 38.6 °F 37.4 °F 81% 29.86 in 10.0 mi SE 6.9 mph - N/A   Clear
1:55 AM 42.8 °F 37.5 °F 39.2 °F 87% 29.85 in 10.0 mi SE 9.2 mph - N/A   Clear
2:15 AM 42.8 °F 38.0 °F 39.2 °F 87% 29.85 in 10.0 mi SE 8.1 mph - N/A   Clear
2:35 AM 42.8 °F 38.0 °F 39.2 °F 87% 29.84 in 10.0 mi SE 8.1 mph - N/A   Clear
2:55 AM 41.0 °F 35.8 °F 39.2 °F 93% 29.84 in 10.0 mi SE 8.1 mph - N/A   Clear
3:15 AM 42.8 °F 38.0 °F 39.2 °F 87% 29.84 in 10.0 mi SE 8.1 mph - N/A   Clear
3:35 AM 41.0 °F 36.4 °F 39.2 °F 93% 29.84 in 10.0 mi SE 6.9 mph - N/A   Clear
3:55 AM 41.0 °F 35.2 °F 39.2 °F 93% 29.83 in 10.0 mi SE 9.2 mph - N/A   Clear
4:15 AM 41.0 °F 35.8 °F 39.2 °F 93% 29.83 in 10.0 mi SE 8.1 mph - N/A   Clear
4:35 AM 42.8 °F 38.0 °F 41.0 °F 93% 29.82 in 10.0 mi SE 8.1 mph - N/A   Clear
4:55 AM 42.8 °F 37.5 °F 41.0 °F 93% 29.81 in 10.0 mi SE 9.2 mph - N/A   Clear
5:15 AM 42.8 °F 37.5 °F 41.0 °F 93% 29.81 in 10.0 mi SE 9.2 mph - N/A   Clear
5:35 AM 42.8 °F 38.0 °F 41.0 °F 93% 29.80 in 10.0 mi SE 8.1 mph - N/A   Clear
5:55 AM 42.8 °F 37.5 °F 41.0 °F 93% 29.80 in 10.0 mi SE 9.2 mph - N/A   Clear
6:15 AM 42.8 °F 37.5 °F 41.0 °F 93% 29.80 in 10.0 mi SE 9.2 mph - N/A   Clear
6:35 AM 42.8 °F 37.5 °F 41.0 °F 93% 29.79 in 10.0 mi SE 9.2 mph - N/A   Clear
6:55 AM 44.6 °F 40.2 °F 41.0 °F 87% 29.79 in 10.0 mi ESE 8.1 mph - N/A   Clear
7:15 AM 44.6 °F 40.2 °F 41.0 °F 87% 29.79 in 10.0 mi ESE 8.1 mph - N/A   Clear
7:35 AM 41.0 °F 35.8 °F 41.0 °F 100% 29.78 in 10.0 mi ESE 8.1 mph - N/A   Clear
7:55 AM 42.8 °F 38.0 °F 41.0 °F 93% 29.78 in 10.0 mi ESE 8.1 mph - N/A   Clear
8:15 AM 46.4 °F 42.4 °F 42.8 °F 87% 29.77 in 10.0 mi ESE 8.1 mph - N/A   Clear
8:35 AM 48.2 °F - 44.6 °F 87% 29.77 in 8.0 mi SE 10.4 mph - N/A   Clear
8:55 AM 50.0 °F - 44.6 °F 82% 29.76 in 10.0 mi SE 15.0 mph - N/A   Clear
9:15 AM 51.8 °F - 44.6 °F 76% 29.75 in 10.0 mi SE 13.8 mph - N/A   Clear
9:35 AM 53.6 °F - 44.6 °F 72% 29.75 in 10.0 mi SE 16.1 mph 21.9 mph N/A   Clear
9:55 AM 55.4 °F - 44.6 °F 67% 29.74 in 10.0 mi SE 19.6 mph 26.5 mph N/A   Clear
10:15 AM 57.2 °F - 46.4 °F 67% 29.74 in 10.0 mi SSE 18.4 mph 27.6 mph N/A   Clear
10:35 AM 59.0 °F - 46.4 °F 63% 29.73 in 10.0 mi SSE 20.7 mph 25.3 mph N/A   Clear
10:55 AM 62.6 °F - 46.4 °F 55% 29.73 in 10.0 mi SSE 19.6 mph 28.8 mph N/A   Clear
11:15 AM 62.6 °F - 48.2 °F 59% 29.72 in 10.0 mi SSE 23.0 mph 28.8 mph N/A   Clear
11:35 AM 64.4 °F - 48.2 °F 56% 29.71 in 10.0 mi SSE 20.7 mph 27.6 mph N/A   Clear
11:55 AM 64.4 °F - 48.2 °F 56% 29.70 in 10.0 mi SSE 18.4 mph 28.8 mph N/A   Clear
12:15 PM 66.2 °F - 48.2 °F 52% 29.69 in 10.0 mi SE 19.6 mph 26.5 mph N/A   Clear
12:35 PM 68.0 °F - 48.2 °F 49% 29.67 in 10.0 mi SSE 19.6 mph 26.5 mph N/A   Clear
12:55 PM 69.8 °F - 50.0 °F 49% 29.66 in 10.0 mi SSE 18.4 mph 32.2 mph N/A   Clear
1:15 PM 71.6 °F - 50.0 °F 46% 29.65 in 10.0 mi SE 24.2 mph 31.1 mph N/A   Clear
1:35 PM 73.4 °F - 50.0 °F 44% 29.64 in 10.0 mi SE 21.9 mph 29.9 mph N/A   Clear
1:55 PM 73.4 °F - 50.0 °F 44% 29.63 in 10.0 mi SE 26.5 mph 32.2 mph N/A   Clear
2:15 PM 75.2 °F - 50.0 °F 41% 29.62 in 10.0 mi SE 20.7 mph 32.2 mph N/A   Clear
2:35 PM 75.2 °F - 50.0 °F 41% 29.61 in 10.0 mi SSE 28.8 mph 33.4 mph N/A   Clear
2:55 PM 75.2 °F - 50.0 °F 41% 29.60 in 10.0 mi SE 28.8 mph 34.5 mph N/A   Clear
3:15 PM 77.0 °F - 51.8 °F 41% 29.59 in 10.0 mi SSE 24.2 mph 36.8 mph N/A   Clear
3:35 PM 77.0 °F - 51.8 °F 41% 29.59 in 10.0 mi SSE 20.7 mph 32.2 mph N/A   Clear
3:55 PM 77.0 °F - 53.6 °F 44% 29.58 in 10.0 mi SE 25.3 mph 31.1 mph N/A   Clear
4:15 PM 77.0 °F - 53.6 °F 44% 29.58 in 10.0 mi SSE 26.5 mph 32.2 mph N/A   Clear
4:35 PM 77.0 °F - 53.6 °F 44% 29.57 in 10.0 mi SSE 25.3 mph 31.1 mph N/A   Clear
4:55 PM 77.0 °F - 55.4 °F 47% 29.57 in 10.0 mi SSE 21.9 mph 28.8 mph N/A   Clear
5:15 PM 77.0 °F - 55.4 °F 47% 29.57 in 10.0 mi SSE 27.6 mph 33.4 mph N/A   Clear
5:35 PM 75.2 °F - 55.4 °F 50% 29.57 in 10.0 mi SSE 24.2 mph 33.4 mph N/A   Clear
5:55 PM 75.2 °F - 55.4 °F 50% 29.57 in 10.0 mi SSE 23.0 mph 31.1 mph N/A   Clear
6:15 PM 75.2 °F - 55.4 °F 50% 29.57 in 10.0 mi SSE 26.5 mph 32.2 mph N/A   Clear
6:35 PM 75.2 °F - 55.4 °F 50% 29.57 in 10.0 mi SSE 19.6 mph 26.5 mph N/A   Clear
6:55 PM 73.4 °F - 55.4 °F 53% 29.57 in 10.0 mi SSE 17.3 mph 27.6 mph N/A   Clear
7:15 PM 73.4 °F - 55.4 °F 53% 29.57 in 10.0 mi SSE 19.6 mph 25.3 mph N/A   Clear
7:35 PM 71.6 °F - 55.4 °F 57% 29.57 in 10.0 mi SE 18.4 mph 24.2 mph N/A   Clear
7:55 PM 71.6 °F - 55.4 °F 57% 29.57 in 10.0 mi SE 17.3 mph - N/A   Clear
8:15 PM 69.8 °F - 55.4 °F 60% 29.57 in 10.0 mi SE 19.6 mph 25.3 mph N/A   Clear
8:35 PM 68.0 °F - 55.4 °F 64% 29.57 in 10.0 mi SE 17.3 mph 26.5 mph N/A   Clear
8:55 PM 68.0 °F - 55.4 °F 64% 29.57 in 10.0 mi SE 16.1 mph 24.2 mph N/A   Clear
9:15 PM 68.0 °F - 55.4 °F 64% 29.56 in 10.0 mi SE 17.3 mph 25.3 mph N/A   Clear
9:35 PM 68.0 °F - 55.4 °F 64% 29.56 in 10.0 mi SSE 16.1 mph 27.6 mph N/A   Clear
9:55 PM 66.2 °F - 55.4 °F 68% 29.56 in 10.0 mi SSE 15.0 mph - N/A   Clear
10:15 PM 66.2 °F - 55.4 °F 68% 29.56 in 10.0 mi SSE 15.0 mph 21.9 mph N/A   Clear
10:35 PM 66.2 °F - 55.4 °F 68% 29.56 in 10.0 mi SSE 18.4 mph 24.2 mph N/A   Clear
10:55 PM 66.2 °F - 55.4 °F 68% 29.56 in 10.0 mi SSE 18.4 mph 21.9 mph N/A   Clear
11:15 PM 66.2 °F - 55.4 °F 68% 29.56 in 10.0 mi SSE 16.1 mph 21.9 mph N/A   Clear
11:35 PM 66.2 °F - 55.4 °F 68% 29.56 in 10.0 mi SSE 17.3 mph 26.5 mph N/A   Clear
11:55 PM 66.2 °F - 55.4 °F 68% 29.56 in 10.0 mi SSE 19.6 mph 26.5 mph N/A   Clear